Tracking 35274 objects as of 11-Sep-2026
HD Live streaming from Space Station
objects crossing your sky now

FREGAT DEB


FREGAT DEB is no longer on orbit


NORAD ID: 46105
Int'l Code: 2011-037JQ
Launch date: July 18, 2011
Source: Commonwealth of Independent States (former USSR) (CIS)
Launch site: TYURATAM MISSILE AND SPACE COMPLEX (TTMTR)
Decay date: 2024-04-13

Note: This is SATELLITE DEBRIS
Your satellite tracking list
Your tracking list is empty




NASA's NSSDC Master Catalog

Two Line Element Set (TLE):
1 46105U 11037JQ  20361.92722521  .07459938  00000-0  23377+0 0  9996
2 46105  51.2383 196.1360 1146583 104.7825 268.2724 13.21882258 16616
Source of the keplerian elements: AFSPC